Time,TemperatureF,DewpointF,PressureIn,WindDirection,WindDirectionDegrees,WindSpeedMPH,WindSpeedGustMPH,Humidity,HourlyPrecipIn,Conditions,Clouds,dailyrainin,SolarRadiationWatts/m^2,SoftwareType,DateUTC
2013-02-01 00:03:00,16.7,7.0,30.10,West,261,0.0,5.0,65,0.00,,,0.00,0,weatherlink.com 1.10,2013-02-01 07:03:00,
2013-02-01 00:18:00,16.4,6.0,30.10,West,259,2.0,5.0,65,0.00,,,0.00,0,weatherlink.com 1.10,2013-02-01 07:18:00,
2013-02-01 00:33:00,16.2,6.0,30.09,West,263,3.0,6.0,65,0.00,,,0.00,0,weatherlink.com 1.10,2013-02-01 07:33:00,
2013-02-01 00:48:00,15.8,6.0,30.09,WSW,257,1.0,2.0,65,0.00,,,0.00,0,weatherlink.com 1.10,2013-02-01 07:48:00,
2013-02-01 01:03:00,15.5,6.0,30.07,WSW,255,0.0,8.0,65,0.00,,,0.00,0,weatherlink.com 1.10,2013-02-01 08:03:00,
2013-02-01 01:18:00,15.5,6.0,30.06,WSW,258,6.0,7.0,67,0.00,,,0.00,0,weatherlink.com 1.10,2013-02-01 08:18:00,
2013-02-01 01:33:00,16.1,7.0,30.07,West,267,4.0,8.0,66,0.00,,,0.00,0,weatherlink.com 1.10,2013-02-01 08:33:00,
2013-02-01 01:48:00,16.2,6.0,30.07,WSW,254,2.0,9.0,65,0.00,,,0.00,0,weatherlink.com 1.10,2013-02-01 08:48:00,
2013-02-01 02:18:00,16.2,7.0,30.06,West,267,3.0,9.0,66,0.00,,,0.00,0,weatherlink.com 1.10,2013-02-01 09:18:00,
2013-02-01 02:33:00,16.3,6.0,30.06,WSW,255,2.0,7.0,65,0.00,,,0.00,0,weatherlink.com 1.10,2013-02-01 09:33:00,
2013-02-01 02:48:00,16.4,6.0,30.05,West,259,0.0,7.0,65,0.00,,,0.00,0,weatherlink.com 1.10,2013-02-01 09:48:00,
2013-02-01 03:03:00,16.2,6.0,30.05,West,259,3.0,7.0,65,0.00,,,0.00,0,weatherlink.com 1.10,2013-02-01 10:03:00,
2013-02-01 03:18:00,15.7,6.0,30.05,WSW,258,0.0,1.0,66,0.00,,,0.00,0,weatherlink.com 1.10,2013-02-01 10:18:00,
2013-02-01 03:33:00,15.6,6.0,30.05,WSW,252,0.0,5.0,67,0.00,,,0.00,0,weatherlink.com 1.10,2013-02-01 10:33:00,
2013-02-01 03:48:00,15.9,7.0,30.04,West,275,0.0,6.0,67,0.00,,,0.00,0,weatherlink.com 1.10,2013-02-01 10:48:00,
2013-02-01 04:03:00,16.0,6.0,30.04,West,281,0.0,3.0,65,0.00,,,0.00,0,weatherlink.com 1.10,2013-02-01 11:03:00,
2013-02-01 04:18:00,15.3,5.0,30.03,SW,215,2.0,8.0,65,0.00,,,0.00,0,weatherlink.com 1.10,2013-02-01 11:18:00,
2013-02-01 04:33:00,15.9,6.0,30.03,West,275,2.0,8.0,66,0.00,,,0.00,0,weatherlink.com 1.10,2013-02-01 11:33:00,
2013-02-01 04:48:00,16.7,7.0,30.04,WNW,300,2.0,9.0,66,0.00,,,0.00,0,weatherlink.com 1.10,2013-02-01 11:48:00,
2013-02-01 05:03:00,16.5,7.0,30.04,WSW,249,7.0,10.0,65,0.00,,,0.00,0,weatherlink.com 1.10,2013-02-01 12:03:00,
2013-02-01 05:18:00,16.8,7.0,30.03,West,281,3.0,9.0,64,0.00,,,0.00,0,weatherlink.com 1.10,2013-02-01 12:18:00,
2013-02-01 05:33:00,17.5,7.0,30.02,NW,309,4.0,7.0,63,0.00,,,0.00,0,weatherlink.com 1.10,2013-02-01 12:33:00,
2013-02-01 05:48:00,17.6,7.0,30.02,NW,309,2.0,9.0,63,0.00,,,0.00,0,weatherlink.com 1.10,2013-02-01 12:48:00,
2013-02-01 06:03:00,17.0,7.0,30.02,NW,323,3.0,9.0,64,0.00,,,0.00,0,weatherlink.com 1.10,2013-02-01 13:03:00,
2013-02-01 06:18:00,17.1,7.0,30.02,West,263,3.0,13.0,65,0.00,,,0.00,0,weatherlink.com 1.10,2013-02-01 13:18:00,
2013-02-01 06:33:00,17.3,7.0,30.02,WNW,301,2.0,7.0,65,0.00,,,0.00,0,weatherlink.com 1.10,2013-02-01 13:33:00,
2013-02-01 06:48:00,16.6,7.0,30.04,West,279,0.0,4.0,65,0.00,,,0.00,0,weatherlink.com 1.10,2013-02-01 13:48:00,
2013-02-01 07:03:00,15.5,6.0,30.04,NW,319,4.0,6.0,67,0.00,,,0.00,0,weatherlink.com 1.10,2013-02-01 14:03:00,
2013-02-01 07:18:00,15.5,6.0,30.05,West,264,0.0,6.0,67,0.00,,,0.00,7,weatherlink.com 1.10,2013-02-01 14:18:00,
2013-02-01 07:33:00,15.7,7.0,30.05,WNW,288,2.0,3.0,67,0.00,,,0.00,21,weatherlink.com 1.10,2013-02-01 14:33:00,
2013-02-01 07:48:00,16.5,7.0,30.07,WNW,298,1.0,3.0,65,0.00,,,0.00,79,weatherlink.com 1.10,2013-02-01 14:48:00,
2013-02-01 08:03:00,17.7,7.0,30.06,WNW,288,2.0,3.0,63,0.00,,,0.00,128,weatherlink.com 1.10,2013-02-01 15:03:00,
2013-02-01 08:19:00,19.0,7.0,30.06,NW,306,2.0,7.0,61,0.00,,,0.00,169,weatherlink.com 1.10,2013-02-01 15:19:00,
2013-02-01 08:34:00,19.7,7.0,30.06,WNW,289,3.0,5.0,59,0.00,,,0.00,214,weatherlink.com 1.10,2013-02-01 15:34:00,
2013-02-01 08:49:00,20.9,8.0,30.06,WNW,289,3.0,6.0,58,0.00,,,0.00,260,weatherlink.com 1.10,2013-02-01 15:49:00,
2013-02-01 09:04:00,22.0,9.0,30.06,WNW,296,2.0,8.0,57,0.00,,,0.00,306,weatherlink.com 1.10,2013-02-01 16:04:00,
2013-02-01 09:19:00,22.9,10.0,30.07,WNW,302,2.0,6.0,57,0.00,,,0.00,352,weatherlink.com 1.10,2013-02-01 16:19:00,
2013-02-01 09:34:00,23.4,10.0,30.06,WNW,300,2.0,6.0,57,0.00,,,0.00,394,weatherlink.com 1.10,2013-02-01 16:34:00,
2013-02-01 09:49:00,24.3,11.0,30.05,WNW,302,4.0,6.0,56,0.00,,,0.00,432,weatherlink.com 1.10,2013-02-01 16:49:00,
2013-02-01 10:04:00,25.3,11.0,30.05,WNW,301,2.0,8.0,54,0.00,,,0.00,475,weatherlink.com 1.10,2013-02-01 17:04:00,
2013-02-01 10:19:00,26.2,11.0,30.06,WNW,295,3.0,8.0,52,0.00,,,0.00,510,weatherlink.com 1.10,2013-02-01 17:19:00,
2013-02-01 10:34:00,27.0,11.0,30.05,West,272,4.0,7.0,51,0.00,,,0.00,543,weatherlink.com 1.10,2013-02-01 17:34:00,
2013-02-01 10:49:00,27.5,10.0,30.05,WNW,282,3.0,11.0,49,0.00,,,0.00,573,weatherlink.com 1.10,2013-02-01 17:49:00,
2013-02-01 11:04:00,28.4,10.0,30.05,WNW,297,3.0,9.0,47,0.00,,,0.00,596,weatherlink.com 1.10,2013-02-01 18:04:00,
2013-02-01 11:19:00,29.0,10.0,30.04,WNW,294,3.0,5.0,46,0.00,,,0.00,619,weatherlink.com 1.10,2013-02-01 18:19:00,
2013-02-01 11:34:00,29.7,12.0,30.04,West,275,5.0,10.0,47,0.00,,,0.00,638,weatherlink.com 1.10,2013-02-01 18:34:00,
2013-02-01 11:50:00,30.3,11.0,30.03,WNW,300,1.0,8.0,45,0.00,,,0.00,650,weatherlink.com 1.10,2013-02-01 18:50:00,
2013-02-01 12:05:00,30.7,10.0,30.03,NNW,347,5.0,9.0,43,0.00,,,0.00,661,weatherlink.com 1.10,2013-02-01 19:05:00,
2013-02-01 12:20:00,30.6,11.0,30.02,NW,316,3.0,10.0,44,0.00,,,0.00,666,weatherlink.com 1.10,2013-02-01 19:20:00,
2013-02-01 12:35:00,31.2,11.0,30.01,WNW,297,2.0,9.0,43,0.00,,,0.00,666,weatherlink.com 1.10,2013-02-01 19:35:00,
2013-02-01 12:50:00,31.3,11.0,30.00,WNW,284,4.0,7.0,43,0.00,,,0.00,664,weatherlink.com 1.10,2013-02-01 19:50:00,
2013-02-01 13:05:00,31.2,10.0,30.00,WSW,257,8.0,10.0,41,0.00,,,0.00,657,weatherlink.com 1.10,2013-02-01 20:05:00,
2013-02-01 13:20:00,31.8,9.0,30.00,West,270,6.0,15.0,39,0.00,,,0.00,645,weatherlink.com 1.10,2013-02-01 20:20:00,
2013-02-01 13:35:00,31.9,10.0,30.00,West,277,6.0,9.0,40,0.00,,,0.00,629,weatherlink.com 1.10,2013-02-01 20:35:00,
2013-02-01 13:50:00,32.2,10.0,30.00,West,278,5.0,10.0,40,0.00,,,0.00,606,weatherlink.com 1.10,2013-02-01 20:50:00,
2013-02-01 14:05:00,32.3,10.0,30.00,WNW,298,3.0,10.0,40,0.00,,,0.00,584,weatherlink.com 1.10,2013-02-01 21:05:00,
2013-02-01 14:20:00,31.7,10.0,30.01,NW,317,3.0,8.0,40,0.00,,,0.00,547,weatherlink.com 1.10,2013-02-01 21:20:00,
2013-02-01 14:35:00,31.1,11.0,30.00,WNW,291,3.0,8.0,44,0.00,,,0.00,30,weatherlink.com 1.10,2013-02-01 21:35:00,
2013-02-01 14:50:00,30.1,10.0,30.01,NW,306,4.0,7.0,44,0.00,,,0.00,37,weatherlink.com 1.10,2013-02-01 21:50:00,
2013-02-01 15:05:00,30.1,11.0,30.00,WNW,299,3.0,7.0,45,0.00,,,0.00,83,weatherlink.com 1.10,2013-02-01 22:05:00,
2013-02-01 15:20:00,29.2,10.0,30.00,NW,314,3.0,9.0,45,0.00,,,0.00,171,weatherlink.com 1.10,2013-02-01 22:20:00,
2013-02-01 15:35:00,28.2,11.0,30.01,NW,317,3.0,13.0,48,0.00,,,0.00,39,weatherlink.com 1.10,2013-02-01 22:35:00,
2013-02-01 15:50:00,27.5,11.0,30.00,WNW,284,3.0,6.0,50,0.00,,,0.00,23,weatherlink.com 1.10,2013-02-01 22:50:00,
2013-02-01 16:05:00,26.9,10.0,30.01,West,281,3.0,8.0,49,0.00,,,0.00,90,weatherlink.com 1.10,2013-02-01 23:05:00,
2013-02-01 16:20:00,26.5,10.0,30.02,NW,313,3.0,6.0,50,0.00,,,0.00,19,weatherlink.com 1.10,2013-02-01 23:20:00,
2013-02-01 16:35:00,25.8,11.0,30.03,West,273,0.0,4.0,53,0.00,,,0.00,18,weatherlink.com 1.10,2013-02-01 23:35:00,
2013-02-01 16:50:00,24.5,10.0,30.03,WNW,299,3.0,8.0,55,0.00,,,0.00,14,weatherlink.com 1.10,2013-02-01 23:50:00,
2013-02-01 17:05:00,23.2,10.0,30.04,WNW,294,2.0,9.0,57,0.00,,,0.00,11,weatherlink.com 1.10,2013-02-02 00:05:00,
2013-02-01 17:20:00,21.9,8.0,30.05,WNW,298,1.0,5.0,56,0.00,,,0.00,5,weatherlink.com 1.10,2013-02-02 00:20:00,
2013-02-01 17:35:00,21.1,8.0,30.06,NW,317,1.0,4.0,58,0.00,,,0.00,0,weatherlink.com 1.10,2013-02-02 00:35:00,
2013-02-01 17:50:00,19.7,7.0,30.07,NW,313,1.0,3.0,59,0.00,,,0.00,0,weatherlink.com 1.10,2013-02-02 00:50:00,
2013-02-01 18:20:00,18.0,7.0,30.08,WNW,289,2.0,3.0,62,0.00,,,0.00,0,weatherlink.com 1.10,2013-02-02 01:20:00,
2013-02-01 18:35:00,17.3,7.0,30.07,West,280,4.0,5.0,64,0.00,,,0.00,0,weatherlink.com 1.10,2013-02-02 01:35:00,
2013-02-01 18:50:00,17.3,7.0,30.05,NW,308,4.0,9.0,63,0.00,,,0.00,0,weatherlink.com 1.10,2013-02-02 01:50:00,
2013-02-01 19:05:00,17.7,7.0,30.07,NNW,344,1.0,8.0,62,0.00,,,0.00,0,weatherlink.com 1.10,2013-02-02 02:05:00,
2013-02-01 19:20:00,17.0,6.0,30.09,North,5,0.0,2.0,62,0.00,,,0.00,0,weatherlink.com 1.10,2013-02-02 02:20:00,
2013-02-01 19:35:00,16.7,6.0,30.10,NW,306,0.0,1.0,62,0.00,,,0.00,0,weatherlink.com 1.10,2013-02-02 02:35:00,
2013-02-01 19:50:00,17.1,6.0,30.10,North,11,0.0,3.0,61,0.00,,,0.00,0,weatherlink.com 1.10,2013-02-02 02:50:00,
2013-02-01 20:05:00,17.6,7.0,30.11,WNW,299,1.0,10.0,63,0.00,,,0.00,0,weatherlink.com 1.10,2013-02-02 03:05:00,
2013-02-01 20:20:00,18.5,7.0,30.11,WNW,302,3.0,8.0,61,0.00,,,0.00,0,weatherlink.com 1.10,2013-02-02 03:20:00,
2013-02-01 20:35:00,19.2,7.0,30.11,WNW,296,3.0,10.0,59,0.00,,,0.00,0,weatherlink.com 1.10,2013-02-02 03:35:00,
2013-02-01 20:50:00,18.7,6.0,30.12,West,277,4.0,7.0,59,0.00,,,0.00,0,weatherlink.com 1.10,2013-02-02 03:50:00,
2013-02-01 21:05:00,18.8,7.0,30.12,WNW,286,3.0,8.0,59,0.00,,,0.00,0,weatherlink.com 1.10,2013-02-02 04:05:00,
2013-02-01 21:20:00,19.3,7.0,30.11,West,264,6.0,11.0,59,0.00,,,0.00,0,weatherlink.com 1.10,2013-02-02 04:20:00,
2013-02-01 21:35:00,19.3,7.0,30.11,NW,314,2.0,13.0,58,0.00,,,0.00,0,weatherlink.com 1.10,2013-02-02 04:35:00,
2013-02-01 21:50:00,19.1,6.0,30.12,WNW,299,1.0,15.0,58,0.00,,,0.00,0,weatherlink.com 1.10,2013-02-02 04:50:00,
2013-02-01 22:05:00,18.8,6.0,30.13,WNW,282,8.0,8.0,58,0.00,,,0.00,0,weatherlink.com 1.10,2013-02-02 05:05:00,
2013-02-01 22:20:00,18.7,6.0,30.14,WNW,286,2.0,10.0,57,0.00,,,0.00,0,weatherlink.com 1.10,2013-02-02 05:20:00,
2013-02-01 22:35:00,18.4,6.0,30.13,NW,312,2.0,9.0,58,0.00,,,0.00,0,weatherlink.com 1.10,2013-02-02 05:35:00,
2013-02-01 22:50:00,18.3,6.0,30.14,SSW,208,6.0,12.0,58,0.00,,,0.00,0,weatherlink.com 1.10,2013-02-02 05:50:00,
2013-02-01 23:05:00,18.3,6.0,30.14,WNW,292,3.0,10.0,58,0.00,,,0.00,0,weatherlink.com 1.10,2013-02-02 06:05:00,
2013-02-01 23:20:00,18.6,6.0,30.14,WSW,242,2.0,10.0,57,0.00,,,0.00,0,weatherlink.com 1.10,2013-02-02 06:20:00,
2013-02-01 23:35:00,18.8,5.0,30.14,WNW,294,3.0,8.0,56,0.00,,,0.00,0,weatherlink.com 1.10,2013-02-02 06:35:00,
2013-02-01 23:50:00,18.7,5.0,30.14,West,275,2.0,5.0,55,0.00,,,0.00,0,weatherlink.com 1.10,2013-02-02 06:50:00,